TimeEST,TemperatureF,Dew PointF,Humidity,Sea Level PressureIn,VisibilityMPH,Wind Direction,Wind SpeedMPH,Gust SpeedMPH,PrecipitationIn,Events,Conditions,WindDirDegrees,DateUTC
12:15 AM,28.2,18.1,66,30.17,10.0,ENE,10.4,-,N/A,,Overcast,60,2013-02-22 05:15:00
12:35 AM,28.2,18.0,65,30.17,10.0,ENE,11.5,-,N/A,,Overcast,60,2013-02-22 05:35:00
12:55 AM,28.2,17.6,64,30.17,10.0,ENE,6.9,-,N/A,,Overcast,60,2013-02-22 05:55:00
1:15 AM,28.4,17.4,63,30.15,10.0,East,9.2,-,N/A,,Overcast,80,2013-02-22 06:15:00
1:35 AM,28.4,17.8,64,30.13,10.0,East,8.1,-,N/A,,Overcast,100,2013-02-22 06:35:00
1:55 AM,28.0,19.2,70,30.10,10.0,East,10.4,-,N/A,,Overcast,80,2013-02-22 06:55:00
2:15 AM,28.2,20.3,72,30.10,10.0,ENE,6.9,-,N/A,,Overcast,70,2013-02-22 07:15:00
2:35 AM,28.2,21.4,76,30.09,10.0,East,10.4,-,N/A,,Overcast,90,2013-02-22 07:35:00
2:55 AM,28.0,21.4,76,30.09,10.0,East,9.2,-,N/A,,Overcast,80,2013-02-22 07:55:00
3:15 AM,28.0,21.6,77,30.09,7.0,East,4.6,-,N/A,Snow,Light Snow,80,2013-02-22 08:15:00
3:35 AM,28.2,22.5,79,30.09,10.0,East,4.6,-,N/A,,Overcast,90,2013-02-22 08:35:00
3:55 AM,27.9,22.5,80,30.06,10.0,East,6.9,-,N/A,,Overcast,80,2013-02-22 08:55:00
4:15 AM,27.9,23.0,82,30.03,10.0,East,10.4,-,N/A,,Overcast,80,2013-02-22 09:15:00
4:35 AM,27.5,23.0,83,30.02,10.0,ENE,8.1,-,N/A,,Overcast,70,2013-02-22 09:35:00
4:55 AM,28.4,23.2,81,30.01,10.0,ENE,6.9,-,N/A,,Overcast,70,2013-02-22 09:55:00
5:15 AM,28.4,23.5,82,30.01,10.0,East,6.9,-,N/A,,Overcast,80,2013-02-22 10:15:00
5:35 AM,28.4,24.1,84,29.99,10.0,East,6.9,-,N/A,,Overcast,80,2013-02-22 10:35:00
5:55 AM,28.9,25.3,86,29.99,7.0,East,4.6,-,N/A,,Overcast,80,2013-02-22 10:55:00
6:15 AM,29.3,26.4,89,29.99,5.0,East,5.8,-,N/A,,Overcast,100,2013-02-22 11:15:00
6:35 AM,30.2,27.9,91,29.98,7.0,East,4.6,-,N/A,,Overcast,90,2013-02-22 11:35:00
6:55 AM,30.2,28.0,92,29.98,10.0,East,4.6,-,N/A,,Overcast,80,2013-02-22 11:55:00
7:15 AM,30.7,28.4,91,29.98,10.0,ENE,4.6,-,N/A,,Overcast,70,2013-02-22 12:15:00
7:55 AM,31.1,28.9,92,29.98,10.0,ENE,4.6,-,N/A,,Overcast,60,2013-02-22 12:55:00
8:15 AM,31.5,29.5,92,29.98,7.0,Calm,Calm,-,N/A,,Overcast,0,2013-02-22 13:15:00
8:35 AM,32.0,30.0,92,29.98,10.0,Calm,Calm,-,N/A,,Overcast,0,2013-02-22 13:35:00
8:55 AM,32.0,30.2,93,29.97,10.0,East,3.5,-,N/A,,Overcast,80,2013-02-22 13:55:00
9:15 AM,32.7,31.1,94,29.98,10.0,Calm,Calm,-,N/A,,Overcast,0,2013-02-22 14:15:00
9:35 AM,33.1,31.3,93,29.97,10.0,Calm,Calm,-,N/A,,Overcast,0,2013-02-22 14:35:00
9:55 AM,33.1,31.6,94,29.97,10.0,Calm,Calm,-,N/A,,Overcast,0,2013-02-22 14:55:00
10:15 AM,33.8,32.0,93,29.97,10.0,Calm,Calm,-,N/A,,Overcast,0,2013-02-22 15:15:00
10:35 AM,35.1,32.9,92,29.97,10.0,Calm,Calm,-,N/A,,Overcast,0,2013-02-22 15:35:00
10:55 AM,35.4,33.1,91,29.97,10.0,South,3.5,-,N/A,,Overcast,170,2013-02-22 15:55:00
11:15 AM,36.5,34.3,92,29.97,10.0,Calm,Calm,-,N/A,,Overcast,0,2013-02-22 16:15:00
11:35 AM,38.3,35.8,91,29.97,10.0,South,4.6,-,N/A,,Overcast,170,2013-02-22 16:35:00
11:55 AM,39.4,36.5,89,29.97,10.0,SW,4.6,-,N/A,,Overcast,220,2013-02-22 16:55:00
12:15 PM,40.3,36.7,87,29.97,10.0,SSW,5.8,-,N/A,,Overcast,200,2013-02-22 17:15:00
12:35 PM,40.3,36.9,88,29.96,10.0,Calm,Calm,-,N/A,,Overcast,0,2013-02-22 17:35:00
12:55 PM,42.8,38.8,86,29.95,10.0,SSW,3.5,-,N/A,,Overcast,210,2013-02-22 17:55:00
1:15 PM,45.7,40.6,83,29.94,10.0,Calm,Calm,-,N/A,,Overcast,0,2013-02-22 18:15:00
1:35 PM,47.5,41.2,79,29.93,10.0,SSW,5.8,-,N/A,,Overcast,200,2013-02-22 18:35:00
2:15 PM,50.9,42.8,74,29.93,10.0,SSW,10.4,-,N/A,,Mostly Cloudy,210,2013-02-22 19:15:00
2:35 PM,51.3,42.8,73,29.93,10.0,SSW,5.8,-,N/A,,Overcast,210,2013-02-22 19:35:00
2:55 PM,52.0,43.2,72,29.92,10.0,SW,6.9,-,N/A,,Overcast,220,2013-02-22 19:55:00
3:15 PM,52.5,43.7,72,29.93,10.0,WSW,4.6,-,N/A,,Overcast,250,2013-02-22 20:15:00
3:35 PM,53.4,44.4,72,29.93,10.0,West,4.6,-,N/A,,Overcast,280,2013-02-22 20:35:00
3:55 PM,52.7,43.7,71,29.93,10.0,WNW,4.6,-,N/A,,Overcast,300,2013-02-22 20:55:00
4:15 PM,49.3,42.3,77,29.94,10.0,NNW,9.2,16.1,N/A,,Overcast,330,2013-02-22 21:15:00
4:35 PM,47.5,41.4,79,29.94,10.0,WNW,9.2,-,N/A,,Mostly Cloudy,300,2013-02-22 21:35:00
4:55 PM,45.9,40.6,82,29.94,10.0,NNW,6.9,-,N/A,,Overcast,340,2013-02-22 21:55:00
5:15 PM,45.1,40.5,84,29.94,10.0,NNW,6.9,-,N/A,,Overcast,340,2013-02-22 22:15:00
5:35 PM,44.6,40.1,84,29.94,10.0,NNW,3.5,-,N/A,,Overcast,340,2013-02-22 22:35:00
5:55 PM,44.1,39.7,85,29.94,10.0,NNE,4.6,-,N/A,,Overcast,20,2013-02-22 22:55:00
6:15 PM,43.2,39.2,86,29.94,10.0,North,3.5,-,N/A,,Mostly Cloudy,10,2013-02-22 23:15:00
6:35 PM,42.8,39.2,87,29.95,10.0,NNE,5.8,-,N/A,,Mostly Cloudy,20,2013-02-22 23:35:00
6:55 PM,42.6,38.7,86,29.96,10.0,Calm,Calm,-,N/A,,Overcast,0,2013-02-22 23:55:00
7:15 PM,42.1,38.3,86,29.97,10.0,Calm,Calm,-,N/A,,Overcast,0,2013-02-23 00:15:00
7:35 PM,41.5,37.9,87,29.97,10.0,NNE,3.5,-,N/A,,Mostly Cloudy,20,2013-02-23 00:35:00
7:55 PM,39.4,36.3,89,29.97,10.0,NE,4.6,-,N/A,,Scattered Clouds,40,2013-02-23 00:55:00
8:15 PM,39.4,36.7,90,29.97,10.0,Calm,Calm,-,N/A,,Scattered Clouds,0,2013-02-23 01:15:00
8:35 PM,38.5,36.1,91,29.98,10.0,Calm,Calm,-,N/A,,Scattered Clouds,0,2013-02-23 01:35:00
8:55 PM,37.8,35.8,93,29.98,7.0,Calm,Calm,-,N/A,,Mostly Cloudy,0,2013-02-23 01:55:00
9:15 PM,37.4,35.6,93,29.98,7.0,NNW,3.5,-,N/A,,Mostly Cloudy,340,2013-02-23 02:15:00
9:35 PM,38.3,36.0,91,29.98,10.0,Calm,Calm,-,N/A,,Overcast,0,2013-02-23 02:35:00
9:55 PM,38.8,36.7,92,29.98,10.0,Calm,Calm,-,N/A,,Mostly Cloudy,0,2013-02-23 02:55:00
10:15 PM,37.8,35.8,93,29.98,10.0,Calm,Calm,-,N/A,,Overcast,0,2013-02-23 03:15:00
10:35 PM,37.0,35.2,93,29.99,7.0,Calm,Calm,-,N/A,,Overcast,0,2013-02-23 03:35:00
10:55 PM,36.9,35.1,93,29.99,7.0,Calm,Calm,-,N/A,,Overcast,0,2013-02-23 03:55:00
11:15 PM,37.0,35.2,93,29.98,5.0,Calm,Calm,-,N/A,,Overcast,0,2013-02-23 04:15:00
11:35 PM,36.9,35.2,94,29.98,5.0,Calm,Calm,-,N/A,,Overcast,0,2013-02-23 04:35:00
11:55 PM,36.7,34.9,93,29.98,5.0,Calm,Calm,-,N/A,,Overcast,0,2013-02-23 04:55:00